Flag for Germany Weather past 2 weeks in Erftstadt, North Rhine-Westphalia, Germany

Now
39 °F

Passing clouds.


Feels Like: 32 °F
Forecast: 37 / 47 °F
Wind: 13 mph from Southwest

Location: Noervenich

Current Time: Apr 1, 2015 at 8:27:31 AM

Latest Report: Apr 1, 2015 at 7:20 AM


Visibility: N/A

Pressure: 29.98 "Hg

Humidity: 75%

Dew point: 32 °F

Location of ErftstadtLocation

Historic Weather in Erftstadt — Graph

°F

Erftstadt temperature yesterday

Maximum temperature yesterday: 54 °F (at 3:20 AM)
Minimum temperature yesterday: 41 °F (at 8:20 PM)
Average temperature yesterday: 49 °F

Past Weeks' High & Low Weather Summary

 TemperatureHumidityPressure
High63 °F (Mar 17, 4:20 PM)100% (Mar 18, 4:20 AM)30.36 "Hg (Mar 18, 4:20 AM)
Low30 °F (Mar 23, 3:20 AM)40% (Mar 26, 1:20 PM)29.30 "Hg (Mar 31, 5:20 AM)
Average45 °F78%29.96 "Hg
* Reported Mar 17 6:20 AM — Apr 1 7:20 AM, Erftstadt, Weather by CustomWeather, © 2015

Note: Actual official high and low records may vary slightly from our data, if they occured in-between our weather recording intervals... More about our weather records

Advertising

Erftstadt weather history for previous 24 hours

 ConditionsComfort  
Time TempWeatherWind HumidityBarometerVisibility
7:20 AM
Wed, Apr 1
39 °FPassing clouds.13 mph75%29.98 "HgN/A
6:20 AM39 °FPassing clouds.17 mph70%29.95 "HgN/A
5:20 AM41 °FPassing clouds.16 mph66%29.92 "HgN/A
4:20 AM39 °FPassing clouds.14 mph75%29.92 "HgN/A
3:20 AM41 °FPassing clouds.16 mph70%29.89 "HgN/A
2:20 AM41 °FPassing clouds.14 mph76%29.86 "HgN/A
1:20 AM41 °FPassing clouds.17 mph76%29.86 "HgN/A
12:20 AM39 °FPassing clouds.15 mph81%29.86 "HgN/A
11:20 PM
Tue, Mar 31
41 °FPassing clouds.16 mph76%29.83 "HgN/A
10:20 PM43 °FPassing clouds.16 mph76%29.83 "HgN/A
9:20 PM41 °FPassing clouds.17 mph81%29.83 "HgN/A
8:20 PM41 °FRain showers. Partly sunny.24 mph87%29.86 "Hg3 mi
7:20 PM48 °FPartly sunny.17 mph54%29.74 "HgN/A
6:20 PM48 °FSprinkles. Partly sunny.15 mph54%29.74 "HgN/A
5:20 PM50 °FPartly sunny.22 mph47%29.71 "HgN/A
5:00 PM52 °FScattered clouds.28 mph44%29.71 "HgN/A
4:20 PM52 °FScattered clouds.21 mph47%29.68 "HgN/A
3:20 PM52 °FScattered clouds.23 mph54%29.65 "HgN/A
2:20 PM48 °FSprinkles. Broken clouds.23 mph66%29.62 "HgN/A
1:20 PM52 °FSprinkles. Broken clouds.22 mph67%29.56 "HgN/A
12:20 PM50 °FSprinkles. Broken clouds.24 mph71%29.53 "HgN/A
12:00 PM54 °FSprinkles. Scattered clouds.24 mph54%29.50 "HgN/A
11:20 AM52 °FPartly sunny.29 mph62%29.47 "HgN/A
10:20 AM48 °FSprinkles. Broken clouds.20 mph87%29.45 "HgN/A
9:20 AM50 °FRain showers. Partly sunny.28 mph82%29.39 "Hg4 mi
8:47 AM52 °FScattered clouds.33 mph77%29.33 "HgN/A
8:20 AM52 °FScattered clouds.33 mph77%29.33 "HgN/A
Weather by CustomWeather, © 2015

See weather overviewHow to use our weather pages